Tracking 33199 objects as of 17-Feb-2026
HD Live streaming from Space Station
objects crossing your sky now

ONEWEB-0068

Track ONEWEB-0068 now!
10-day predictions
ONEWEB-0068 is classified as:


NORAD ID: 45446
Int'l Code: 2020-020Y
Perigee: 1,223.5 km
Apogee: 1,226.1 km
Inclination: 87.9 °
Period: 109.8 minutes
Semi major axis: 7595 km
RCS: Unknown
Launch date: March 21, 2020
Source: United Kingdom (UK)
Launch site: TYURATAM MISSILE AND SPACE COMPLEX (TTMTR)
Your satellite tracking list
Your tracking list is empty




NASA's NSSDC Master Catalog

Two Line Element Set (TLE):
1 45446U 20020Y   26047.52814976  .00000262  00000-0  70211-3 0  9992
2 45446  87.8834  45.0562 0001695  83.8804 276.2517 13.11415421286781
Source of the keplerian elements: AFSPC